YMA7555 KRNO-KPDX

Flight info

Callsign YMA7555
Flight time 1h 4m
Altitude 32000
Route HALLE WNDEL LMT GALLO
Aircraft B738/M-VGDW/C

Departure

Time 2026-05-07 09:35
Airport Reno Tahoe International Airport (KRNO)

Arrival

Time 2026-05-07 10:39
Airport Portland International Airport (KPDX)
Time Latitude Longitude Altitude Speed Heading
2026-05-07 09:23 39.50438 -119.77422 4417 ft 0 kts 12°
2026-05-07 09:30 39.50401 -119.77426 4516 ft 12 kts 357°
2026-05-07 09:30 39.50400 -119.77419 4517 ft 1 kts 46°
2026-05-07 09:30 39.50400 -119.77411 4516 ft 2 kts 82°
2026-05-07 09:31 39.50402 -119.77393 4517 ft 4 kts 84°
2026-05-07 09:31 39.50381 -119.77328 4517 ft 15 kts 116°
2026-05-07 09:31 39.50374 -119.77253 4517 ft 12 kts 92°
2026-05-07 09:31 39.50412 -119.77073 4520 ft 24 kts 22°
2026-05-07 09:32 39.50600 -119.77072 4518 ft 33 kts 357°
2026-05-07 09:32 39.50842 -119.77076 4517 ft 32 kts
2026-05-07 09:32 39.50919 -119.77072 4518 ft 23 kts
2026-05-07 09:32 39.51095 -119.77060 4519 ft 10 kts 40°
2026-05-07 09:33 39.51099 -119.77044 4517 ft 0 kts 82°
2026-05-07 09:34 39.51101 -119.76977 4520 ft 17 kts 91°
2026-05-07 09:34 39.51033 -119.76926 4519 ft 18 kts 182°
2026-05-07 09:34 39.50669 -119.76926 4517 ft 87 kts 180°
2026-05-07 09:34 39.49851 -119.76922 4516 ft 146 kts 179°
2026-05-07 09:35 39.48685 -119.76977 4621 ft 188 kts 184°
2026-05-07 09:35 39.47294 -119.77063 5032 ft 207 kts 180°
2026-05-07 09:35 39.45824 -119.77169 5378 ft 218 kts 198°
2026-05-07 09:35 39.45307 -119.77455 5444 ft 224 kts 212°
2026-05-07 09:36 39.44320 -119.79015 5412 ft 249 kts 249°
2026-05-07 09:36 39.44246 -119.81310 5198 ft 261 kts 291°
2026-05-07 09:37 39.44867 -119.83292 6382 ft 223 kts 293°
2026-05-07 09:37 39.45491 -119.85143 6814 ft 236 kts 292°
2026-05-07 09:37 39.46109 -119.86900 7764 ft 212 kts 302°
2026-05-07 09:37 39.47306 -119.88153 7874 ft 241 kts 341°
2026-05-07 09:38 39.49035 -119.88135 7986 ft 263 kts 19°
2026-05-07 09:38 39.50702 -119.87121 8449 ft 265 kts 23°
2026-05-07 09:38 39.52436 -119.86256 8952 ft 272 kts 17°
2026-05-07 09:38 39.78265 -119.88038 9414 ft 287 kts
2026-05-07 09:39 39.80274 -119.88342 9721 ft 296 kts 336°
2026-05-07 09:39 39.82089 -119.89480 10247 ft 287 kts 332°
2026-05-07 09:39 39.83927 -119.90596 10711 ft 297 kts 335°
2026-05-07 09:39 39.85869 -119.91702 11096 ft 312 kts 335°
2026-05-07 09:40 39.87900 -119.92851 11439 ft 324 kts 335°
2026-05-07 09:40 39.90005 -119.94038 11775 ft 335 kts 335°
2026-05-07 09:40 39.92190 -119.95225 12114 ft 345 kts 334°
2026-05-07 09:40 39.94329 -119.96691 12476 ft 350 kts 328°
2026-05-07 09:41 39.96399 -119.98278 12857 ft 349 kts 328°
2026-05-07 09:41 39.98498 -119.99892 13234 ft 351 kts 327°
2026-05-07 09:41 40.00621 -120.01569 13604 ft 352 kts 327°
2026-05-07 09:41 40.02691 -120.03204 13966 ft 353 kts 327°
2026-05-07 09:42 40.04800 -120.04862 14314 ft 355 kts 327°
2026-05-07 09:42 40.06935 -120.06497 14675 ft 357 kts 328°
2026-05-07 09:42 40.09087 -120.08126 15042 ft 359 kts 328°
2026-05-07 09:42 40.11251 -120.09765 15401 ft 360 kts 328°
2026-05-07 09:43 40.13421 -120.11414 15758 ft 362 kts 328°
2026-05-07 09:43 40.15597 -120.13072 16113 ft 363 kts 328°
2026-05-07 09:43 40.17780 -120.14743 16459 ft 365 kts 328°
2026-05-07 09:43 40.19975 -120.16421 16804 ft 367 kts 328°
2026-05-07 09:44 40.22182 -120.18106 17162 ft 368 kts 328°
2026-05-07 09:44 40.24394 -120.19801 17509 ft 369 kts 328°
2026-05-07 09:44 40.26613 -120.21506 17857 ft 371 kts 328°
2026-05-07 09:44 40.28829 -120.23251 18200 ft 373 kts 327°
2026-05-07 09:45 40.31049 -120.25021 18531 ft 374 kts 327°
2026-05-07 09:45 40.33277 -120.26791 18856 ft 375 kts 327°
2026-05-07 09:45 40.35526 -120.28544 19183 ft 377 kts 328°
2026-05-07 09:45 40.37791 -120.30302 19512 ft 379 kts 328°
2026-05-07 09:46 40.40040 -120.32127 19835 ft 380 kts 327°
2026-05-07 09:46 40.42306 -120.33924 20194 ft 381 kts 329°
2026-05-07 09:46 40.44611 -120.35665 20564 ft 383 kts 329°
2026-05-07 09:46 40.46931 -120.37417 20922 ft 387 kts 329°
2026-05-07 09:47 40.49267 -120.39191 21264 ft 389 kts 329°
2026-05-07 09:47 40.51599 -120.41000 21610 ft 390 kts 328°
2026-05-07 09:47 40.53925 -120.42844 21928 ft 392 kts 328°
2026-05-07 09:47 40.56262 -120.44706 22229 ft 394 kts 328°
2026-05-07 09:48 40.58613 -120.46561 22516 ft 395 kts 329°
2026-05-07 09:48 40.60994 -120.48389 22824 ft 397 kts 329°
2026-05-07 09:48 40.63383 -120.50222 23107 ft 399 kts 329°
2026-05-07 09:48 40.65781 -120.52079 23392 ft 401 kts 329°
2026-05-07 09:49 40.68183 -120.53947 23674 ft 402 kts 329°
2026-05-07 09:49 40.70596 -120.55819 23922 ft 403 kts 329°
2026-05-07 09:49 40.73014 -120.57697 24212 ft 404 kts 329°
2026-05-07 09:49 40.75434 -120.59593 24498 ft 406 kts 329°
2026-05-07 09:50 40.77868 -120.61495 24782 ft 409 kts 329°
2026-05-07 09:50 40.80325 -120.63416 25070 ft 410 kts 329°
2026-05-07 09:50 40.82783 -120.65340 25353 ft 412 kts 329°
2026-05-07 09:50 40.85254 -120.67277 25640 ft 413 kts 329°
2026-05-07 09:51 40.87678 -120.69230 25926 ft 414 kts 328°
2026-05-07 09:51 40.90134 -120.71239 26202 ft 416 kts 328°
2026-05-07 09:51 40.92608 -120.73248 26480 ft 418 kts 329°
2026-05-07 09:51 40.95112 -120.75231 26756 ft 420 kts 329°
2026-05-07 09:52 40.97629 -120.77212 27032 ft 422 kts 329°
2026-05-07 09:52 41.00158 -120.79204 27308 ft 423 kts 329°
2026-05-07 09:52 41.02691 -120.81208 27580 ft 425 kts 329°
2026-05-07 09:52 41.05234 -120.83217 27853 ft 427 kts 329°
2026-05-07 09:53 41.07791 -120.85245 28117 ft 429 kts 329°
2026-05-07 09:53 41.10353 -120.87283 28380 ft 430 kts 329°
2026-05-07 09:53 41.12927 -120.89332 28646 ft 432 kts 329°
2026-05-07 09:53 41.15506 -120.91388 28910 ft 433 kts 329°
2026-05-07 09:54 41.18098 -120.93450 29174 ft 435 kts 329°
2026-05-07 09:54 41.20704 -120.95520 29433 ft 437 kts 329°
2026-05-07 09:54 41.23317 -120.97600 29685 ft 439 kts 329°
2026-05-07 09:54 41.25940 -120.99690 29951 ft 440 kts 329°
2026-05-07 09:55 41.28572 -121.01790 30196 ft 442 kts 329°
2026-05-07 09:55 41.31205 -121.03897 30439 ft 442 kts 329°
2026-05-07 09:55 41.33845 -121.06003 30684 ft 442 kts 330°
2026-05-07 09:55 41.36477 -121.08116 30931 ft 443 kts 329°
2026-05-07 09:56 41.39099 -121.10281 31174 ft 443 kts 329°
2026-05-07 09:56 41.41706 -121.12459 31419 ft 443 kts 328°
2026-05-07 09:56 41.44316 -121.14628 31668 ft 442 kts 329°
2026-05-07 09:56 41.46949 -121.16757 31910 ft 442 kts 329°
2026-05-07 09:57 41.49587 -121.18875 32099 ft 443 kts 329°
2026-05-07 09:57 41.54928 -121.23153 32130 ft 453 kts 329°
2026-05-07 09:58 41.60373 -121.27512 32131 ft 459 kts 329°
2026-05-07 09:58 41.65835 -121.31950 32124 ft 459 kts 329°
2026-05-07 09:59 41.71252 -121.36451 32125 ft 458 kts 329°
2026-05-07 09:59 41.76628 -121.40913 32126 ft 458 kts 329°
2026-05-07 10:00 41.82054 -121.45375 32123 ft 458 kts 329°
2026-05-07 10:00 41.87533 -121.49732 32132 ft 458 kts 329°
2026-05-07 10:01 41.92975 -121.54176 32148 ft 458 kts 328°
2026-05-07 10:01 41.98410 -121.58624 32165 ft 458 kts 329°
2026-05-07 10:02 42.03847 -121.63078 32182 ft 459 kts 329°
2026-05-07 10:02 42.09329 -121.67554 32195 ft 463 kts 328°
2026-05-07 10:03 42.14791 -121.72187 32193 ft 464 kts 327°
2026-05-07 10:03 42.20590 -121.75960 32198 ft 463 kts 338°
2026-05-07 10:04 42.26568 -121.79178 32189 ft 462 kts 338°
2026-05-07 10:04 42.32528 -121.82379 32168 ft 460 kts 338°
2026-05-07 10:05 42.38441 -121.85678 32150 ft 461 kts 337°
2026-05-07 10:05 42.44372 -121.89016 32129 ft 462 kts 337°
2026-05-07 10:06 42.50323 -121.92360 32111 ft 463 kts 337°
2026-05-07 10:06 42.56252 -121.95729 32110 ft 461 kts 336°
2026-05-07 10:07 42.62123 -121.99192 32107 ft 460 kts 336°
2026-05-07 10:07 42.68010 -122.02586 32108 ft 460 kts 337°
2026-05-07 10:08 42.73941 -122.05899 32109 ft 462 kts 336°
2026-05-07 10:08 42.79852 -122.09348 32109 ft 462 kts 336°
2026-05-07 10:09 42.85749 -122.12808 32112 ft 461 kts 336°
2026-05-07 10:09 42.91614 -122.16151 32101 ft 460 kts 343°
2026-05-07 10:09 42.94763 -122.16924 32098 ft 462 kts 354°
2026-05-07 10:10 42.97971 -122.17198 32123 ft 463 kts 355°
2026-05-07 10:10 43.04424 -122.17553 32116 ft 465 kts 355°
2026-05-07 10:11 43.10880 -122.18014 32113 ft 464 kts 355°
2026-05-07 10:11 43.17307 -122.18607 32118 ft 462 kts 354°
2026-05-07 10:12 43.22668 -122.19130 32118 ft 461 kts 354°
2026-05-07 10:12 43.30112 -122.19850 32118 ft 462 kts 354°
2026-05-07 10:13 43.36539 -122.20459 32121 ft 463 kts 354°
2026-05-07 10:13 43.42964 -122.21045 32125 ft 462 kts 354°
2026-05-07 10:14 43.48285 -122.21520 32125 ft 460 kts 354°
2026-05-07 10:14 43.54674 -122.22093 32131 ft 460 kts 354°
2026-05-07 10:15 43.61079 -122.22659 32134 ft 462 kts 354°
2026-05-07 10:15 43.67495 -122.23219 32138 ft 462 kts 354°
2026-05-07 10:16 43.73891 -122.23836 32143 ft 460 kts 353°
2026-05-07 10:16 43.80258 -122.24539 32148 ft 459 kts 353°
2026-05-07 10:17 43.86639 -122.25143 32149 ft 461 kts 354°
2026-05-07 10:17 43.89842 -122.25407 32039 ft 464 kts 354°
2026-05-07 10:17 43.93088 -122.25676 31646 ft 467 kts 354°
2026-05-07 10:17 43.96300 -122.25951 31184 ft 458 kts 354°
2026-05-07 10:18 43.99453 -122.26268 30616 ft 452 kts 353°
2026-05-07 10:18 44.02571 -122.26594 30042 ft 447 kts 353°
2026-05-07 10:18 44.05651 -122.26916 29421 ft 442 kts 353°
2026-05-07 10:18 44.08699 -122.27226 28903 ft 436 kts 353°
2026-05-07 10:19 44.11698 -122.27530 28452 ft 429 kts 353°
2026-05-07 10:19 44.14654 -122.27825 28008 ft 425 kts 353°
2026-05-07 10:19 44.17615 -122.28118 27494 ft 428 kts 353°
2026-05-07 10:19 44.20590 -122.28413 26954 ft 428 kts 353°
2026-05-07 10:20 44.23544 -122.28707 26499 ft 423 kts 353°
2026-05-07 10:20 44.26461 -122.28993 26036 ft 418 kts 353°
2026-05-07 10:20 44.29361 -122.29271 25590 ft 417 kts 353°
2026-05-07 10:20 44.32253 -122.29551 25145 ft 416 kts 353°
2026-05-07 10:21 44.35132 -122.29831 24700 ft 414 kts 353°
2026-05-07 10:21 44.38006 -122.30111 24053 ft 415 kts 353°
2026-05-07 10:21 44.40893 -122.30389 23431 ft 412 kts 353°
2026-05-07 10:21 44.43709 -122.30653 22941 ft 401 kts 353°
2026-05-07 10:22 44.46479 -122.30909 22500 ft 397 kts 353°
2026-05-07 10:22 44.49229 -122.31164 21930 ft 395 kts 353°
2026-05-07 10:22 44.51966 -122.31414 21476 ft 393 kts 353°
2026-05-07 10:22 44.54681 -122.31654 21030 ft 390 kts 353°
2026-05-07 10:23 44.57373 -122.31893 20592 ft 386 kts 353°
2026-05-07 10:23 44.60029 -122.32124 20026 ft 380 kts 353°
2026-05-07 10:23 44.62669 -122.32365 19441 ft 380 kts 353°
2026-05-07 10:23 44.65293 -122.32652 19005 ft 376 kts 352°
2026-05-07 10:24 44.67893 -122.32939 18530 ft 375 kts 352°
2026-05-07 10:24 44.70499 -122.33218 17988 ft 375 kts 352°
2026-05-07 10:24 44.73050 -122.33489 17555 ft 372 kts 352°
2026-05-07 10:24 44.75617 -122.33761 17087 ft 367 kts 352°
2026-05-07 10:25 44.78182 -122.34032 16468 ft 371 kts 353°
2026-05-07 10:25 44.80754 -122.34269 15912 ft 371 kts 353°
2026-05-07 10:25 44.83327 -122.34480 15306 ft 368 kts 353°
2026-05-07 10:25 44.85844 -122.34691 14858 ft 356 kts 353°
2026-05-07 10:26 44.88278 -122.34941 14594 ft 341 kts 353°
2026-05-07 10:26 44.90604 -122.35188 14363 ft 330 kts 352°
2026-05-07 10:26 44.92871 -122.35425 13918 ft 326 kts 352°
2026-05-07 10:26 44.95123 -122.35664 13432 ft 323 kts 352°
2026-05-07 10:27 44.97342 -122.35896 12916 ft 320 kts 353°
2026-05-07 10:27 44.99554 -122.36130 12467 ft 316 kts 352°
2026-05-07 10:27 45.01728 -122.36358 12034 ft 312 kts 353°
2026-05-07 10:27 45.03882 -122.36587 11639 ft 307 kts 353°
2026-05-07 10:28 45.06020 -122.36785 11116 ft 307 kts 354°
2026-05-07 10:28 45.08131 -122.36964 10837 ft 300 kts 354°
2026-05-07 10:28 45.10186 -122.37142 10558 ft 293 kts 354°
2026-05-07 10:28 45.12212 -122.37314 10256 ft 291 kts 352°
2026-05-07 10:29 45.14230 -122.37508 9948 ft 290 kts 352°
2026-05-07 10:29 45.16240 -122.37712 9600 ft 290 kts 352°
2026-05-07 10:29 45.18243 -122.37915 9310 ft 287 kts 351°
2026-05-07 10:30 45.22212 -122.38344 8701 ft 284 kts 351°
2026-05-07 10:30 45.24191 -122.38295 8337 ft 289 kts
2026-05-07 10:30 45.26129 -122.37633 8082 ft 284 kts 15°
2026-05-07 10:30 45.27773 -122.36080 7698 ft 292 kts 47°
2026-05-07 10:31 45.28605 -122.33468 7332 ft 295 kts 82°
2026-05-07 10:31 45.28654 -122.30593 7108 ft 286 kts 78°
2026-05-07 10:31 45.29206 -122.27948 6952 ft 276 kts 66°
2026-05-07 10:31 45.30056 -122.25580 6922 ft 265 kts 44°
2026-05-07 10:32 45.31575 -122.24239 6779 ft 258 kts
2026-05-07 10:32 45.33316 -122.24425 6565 ft 252 kts 333°
2026-05-07 10:32 45.34821 -122.25596 6532 ft 240 kts 329°
2026-05-07 10:32 45.36324 -122.26616 6332 ft 241 kts 335°
2026-05-07 10:33 45.37900 -122.27422 6073 ft 241 kts 340°
2026-05-07 10:33 45.39518 -122.28043 5808 ft 241 kts 343°
2026-05-07 10:33 45.41143 -122.28598 5542 ft 240 kts 343°
2026-05-07 10:33 45.42760 -122.29151 5298 ft 239 kts 344°
2026-05-07 10:34 45.44379 -122.29673 5027 ft 239 kts 345°
2026-05-07 10:34 45.45956 -122.30375 4642 ft 237 kts 326°
2026-05-07 10:34 45.47059 -122.32026 4391 ft 225 kts 303°
2026-05-07 10:34 45.47907 -122.33800 4258 ft 209 kts 303°
2026-05-07 10:35 45.48730 -122.35459 4007 ft 203 kts 304°
2026-05-07 10:35 45.49530 -122.37104 3772 ft 201 kts 302°
2026-05-07 10:35 45.50314 -122.38758 3563 ft 199 kts 302°
2026-05-07 10:35 45.51050 -122.40390 3303 ft 193 kts 299°
2026-05-07 10:36 45.51692 -122.42020 3063 ft 189 kts 298°
2026-05-07 10:36 45.52331 -122.43656 2825 ft 184 kts 299°
2026-05-07 10:36 45.52929 -122.45226 2579 ft 176 kts 298°
2026-05-07 10:36 45.53502 -122.46728 2328 ft 173 kts 300°
2026-05-07 10:37 45.54088 -122.48205 2068 ft 165 kts 301°
2026-05-07 10:37 45.54632 -122.49589 1803 ft 159 kts 300°
2026-05-07 10:37 45.55159 -122.50935 1564 ft 152 kts 301°
2026-05-07 10:37 45.55658 -122.52216 1303 ft 145 kts 300°
2026-05-07 10:38 45.56147 -122.53456 1035 ft 142 kts 301°
2026-05-07 10:38 45.56615 -122.54676 775 ft 138 kts 301°
2026-05-07 10:38 45.57072 -122.55854 533 ft 134 kts 301°
2026-05-07 10:38 45.57524 -122.57016 302 ft 134 kts 301°
2026-05-07 10:39 45.57980 -122.58180 96 ft 132 kts 302°
2026-05-07 10:39 45.58415 -122.59259 21 ft 114 kts 298°
2026-05-07 10:39 45.58583 -122.59714 24 ft 24 kts 321°
2026-05-07 10:39 45.58659 -122.59728 22 ft 0 kts 27°
2026-05-07 10:40 45.58689 -122.59714 20 ft 8 kts 356°
2026-05-07 10:41 45.58745 -122.59846 19 ft 37 kts 294°
2026-05-07 10:41 45.58855 -122.60129 18 ft 25 kts 302°
2026-05-07 10:41 45.58974 -122.60198 19 ft 19 kts 31°
2026-05-07 10:41 45.59056 -122.60126 18 ft 10 kts 56°
2026-05-07 10:42 45.59044 -122.60064 16 ft 13 kts 122°
2026-05-07 10:42 45.59021 -122.60014 16 ft 1 kts 120°
2026-05-07 10:42 45.59019 -122.60009 16 ft 1 kts 120°
2026-05-07 10:42 45.59017 -122.60004 16 ft 0 kts 118°